Location: Ottawa
(45.4167°N, 75.7000°W)
Time: 07:52:38
(UTC-04:00)

ISS - Pass Details

Date: 16 October 2017
Orbit: 400 x 408 km, 51.6° (Epoch: 24 October)

Event Time Altitude Azimuth Distance (km) Brightness Sun altitude
Rises 19:17:37 0° 288° (WNW) 2,324 1.5 -11.7°
Reaches altitude 10° 19:20:13 10° 267° (W) 1,462 0.5 -12.2°
Maximum altitude 19:22:23 17° 225° (SW) 1,127 -1.0 -12.5°
Drops below altitude 10° 19:24:32 10° 183° (S) 1,458 -1.0 -12.9°
Sets 19:27:07 0° 162° (SSE) 2,314 -0.2 -13.4°
